Hamilton Airport, Ontario

5:36 PM EDT on April 27, 2017 (GMT -0400)
Hamilton Airport

Weather History for CYHM - October, 2012

Change the Weather History Date:

Wednesday, October 17, 2012

  Actual Average Record
Temperature  
Mean Temperature 52 °F -  
Max Temperature 66 °F 50 °F 75 °F (2016)
Min Temperature 39 °F 35 °F 27 °F (2015)
Degree Days  
Heating Degree Days 12    
Growing Degree Days 2 (Base 50)    
Moisture  
Dew Point 46 °F    
Average Humidity 76    
Maximum Humidity 100    
Minimum Humidity 42    
Precipitation  
Precipitation 0.08 in 0.10 in - ()
Sea Level Pressure  
Sea Level Pressure 29.82 in    
Wind  
Wind Speed 7 mph ()    
Max Wind Speed 16 mph    
Max Gust Speed 24 mph    
Visibility 15.0 miles    
Events Rain    
Averages and records for this station are not official NWS values.
T = Trace of Precipitation, MM = Missing Value Source: Averaged Metar Reports

Daily Weather History Graph

Daily Weather History Graph

Search for Another Location

Airport or City:

Trip Planner

Search our weather history database for the weather conditions in past years. The results will help you decide how hot, cold, wet, or windy it might be!

Date:

Astronomy

Oct. 17, 2012 Rise Set
Actual Time 7:36 AM EDT 6:32 PM EDT
Civil Twilight 7:07 AM EDT 7:01 PM EDT
Nautical Twilight 6:34 AM EDT 7:34 PM EDT
Astronomical Twilight 6:01 AM EDT 8:07 PM EDT
Moon 10:13 AM EDT (10/17) 8:02 PM EDT (10/17)
Length of Visible Light 11h 53m
Length of Day
10h 56m
Waxing Crescent, 7% of the Moon is Illuminated
Oct 17
Waxing Crescent
Oct 21
First Quarter
Oct 29
Full
Nov 6
Last Quarter
Nov 13
New

Hourly Weather History & Observations

Time (EDT) Temp. Windchill Dew Point Humidity Pressure Visibility Wind Dir Wind Speed Gust Speed Precip Events Conditions
12:00 AM 41.0 °F - 37.4 °F 87% 29.88 in 15.0 mi SSW 2.3 mph - N/A   Scattered Clouds
2:00 AM 43 °F - 41 °F 90% 29.89 in 15 mi South 6.9 mph - -   Clear
4:00 AM 41.0 °F 37.1 °F 41.0 °F 100% 29.86 in 15.0 mi ESE 5.8 mph - N/A   Scattered Clouds
5:00 AM 44.6 °F 40.7 °F 42.8 °F 93% 29.85 in 15.0 mi SSE 6.9 mph - N/A   Mostly Cloudy
6:00 AM 46.4 °F 42.4 °F 42.8 °F 87% 29.85 in 15.0 mi SSE 8.1 mph - N/A   Mostly Cloudy
7:00 AM 46.4 °F 42.9 °F 44.6 °F 93% 29.85 in 15.0 mi SSE 6.9 mph - N/A   Mostly Cloudy
7:51 AM 46.4 °F 44.3 °F 44.6 °F 93% 29.85 in 15.0 mi South 4.6 mph - N/A Rain Light Rain Showers
8:00 AM 47 °F - 45 °F 91% 29.85 in 15 mi South 4.6 mph - - Rain Light Rain Showers
8:00 AM 46.4 °F 43.5 °F 44.6 °F 93% 29.85 in 15.0 mi South 5.8 mph - N/A Rain Light Rain Showers
9:00 AM 50.0 °F - 46.4 °F 87% 29.86 in 15.0 mi SSE 10.4 mph - N/A Rain Light Rain Showers
9:38 AM 51.8 °F - 48.2 °F 88% 29.86 in 15.0 mi South 6.9 mph - N/A   Mostly Cloudy
10:00 AM 51.8 °F - 48.2 °F 88% 29.86 in 15.0 mi South 8.1 mph - N/A   Overcast
10:04 AM 51.8 °F - 50.0 °F 94% 29.86 in 15.0 mi South 8.1 mph - N/A Rain Light Rain Showers
11:00 AM 55.4 °F - 50.0 °F 82% 29.84 in 15.0 mi South 10.4 mph - N/A Rain Light Rain Showers
11:34 AM 55.4 °F - 48.2 °F 77% 29.83 in 15.0 mi South 11.5 mph - N/A   Mostly Cloudy
12:00 PM 57.2 °F - 48.2 °F 72% 29.81 in 15.0 mi South 13.8 mph - N/A   Mostly Cloudy
1:00 PM 60.8 °F - 46.4 °F 59% 29.81 in 15.0 mi SSW 15.0 mph 24.2 mph N/A   Mostly Cloudy
2:00 PM 64 °F - 46 °F 42% 29.79 in 15 mi South 15.0 mph - -   Partly Cloudy
2:00 PM 64.4 °F - 46.4 °F 52% 29.79 in 15.0 mi South 16.1 mph - N/A   Mostly Cloudy
3:00 PM 64.4 °F - 46.4 °F 52% 29.78 in 15.0 mi SSW 13.8 mph 24.2 mph N/A   Scattered Clouds
5:00 PM 64.4 °F - 46.4 °F 52% 29.76 in 15.0 mi South 13.8 mph - N/A   Mostly Cloudy
6:00 PM 62.6 °F - 46.4 °F 55% 29.76 in 15.0 mi South 8.1 mph - N/A   Mostly Cloudy
7:00 PM 57.2 °F - 46.4 °F 67% 29.76 in 15.0 mi SSE 6.9 mph - N/A   Scattered Clouds
8:00 PM 57 °F - 46 °F 58% 29.77 in 15 mi SE 8.1 mph - -   Scattered Clouds
8:00 PM 57.2 °F - 46.4 °F 67% 29.76 in 15.0 mi SE 8.1 mph - N/A   Partly Cloudy
9:00 PM 55.4 °F - 46.4 °F 72% 29.76 in 15.0 mi SSE 6.9 mph - N/A   Partly Cloudy
10:00 PM 55.4 °F - 46.4 °F 72% 29.75 in 15.0 mi SSE 9.2 mph - N/A   Partly Cloudy
11:00 PM 55.4 °F - 46.4 °F 72% 29.75 in 15.0 mi SSE 8.1 mph - N/A   Mostly Cloudy